[Date Prev][Date Next][Thread Prev][Thread Next] - [Date Index][Thread Index][Author Index]
2 Line ISS Keps 4-1
- Subject: [sarex] 2 Line ISS Keps 4-1
- From: "Dave Larsen PhD" <doc@xxxxxxxxxxx>
- Date: Fri, 31 Mar 2006 19:32:07 -0800
ISS
1 25544U 98067A 06090.98951588 .00012770 00000-0 88805-4 0 6445
2 25544 051.6426 224.7768 0009135 065.9223 041.1068 15.74782579420996
----
Via the sarex mailing list at AMSAT.ORG courtesy of AMSAT-NA.
To unsubscribe, send "unsubscribe sarex" to Majordomo@amsat.org
AMSAT Home